Location: Lafig�re
(44.4503°N, 4.0357°E)
Time: 05:36:41
(UTC+00:00)

Vanguard 2 - Pass Details

Date: 24 January 2021
Orbit: 552 x 2938 km, 32.9° (Epoch: 01 March)

Event Time Altitude Azimuth Distance (km) Brightness Sun altitude
Rises 18:48:11 0° 250° (WSW) 2,843 11.8 -22.3°
Reaches altitude 10° 18:50:38 10° 233° (SW) 2,082 10.5 -22.8°
Maximum altitude 18:54:16 22° 182° (S) 1,686 9.3 -23.4°
Enters shadow 18:56:20 18° 154° (SSE) 2,026 9.4 -23.8°
